{"data":{"norad_id":59812,"intl_designator":"2024-095C","name":"2024-095C","alt_names":[],"object_type":"PAYLOAD","status":"ACTIVE","operator":null,"country":"PRC","launch_date":"2024-05-21","launch_site_code":"JSC","launch_vehicle":null,"mission":null,"orbit_class":"UNKNOWN","rcs_meters":null,"size_class":null,"mass_kg":null,"dimensions":null,"purposes":[],"wikipedia_slug":null,"has_3d_model":false,"image_url":null,"decayed_at":null,"tle_current":{"epoch":"2026-05-25T04:49:42.367584Z","epoch_age_seconds":57694,"freshness":"FRESH","line1":"1 59812U 24095C   26145.20118481  .00834048  35654-3  12539-2 0  9993","line2":"2 59812  97.5392 251.7972 0009506 250.5009 109.5245 16.04665088112640","mean_motion":16.04665088,"eccentricity":0.0009506,"inclination_deg":97.5392,"raan_deg":251.7972,"arg_perigee_deg":250.5009,"mean_anomaly_deg":109.5245,"bstar":0.0012539,"rev_number":11264,"period_min":89.738351682766,"perigee_km":255.20723339797,"apogee_km":267.83054717658,"semimajor_km":6639.6558902873,"source":"CELESTRAK","updated_at":"2026-05-25T13:38:01.685707Z"}}}